Altus AFB, OK

1:47 PM CDT on October 23, 2019 (GMT -0500)
Altus Air Force Base

Weather History for KLTS - August, 2019

Change the Weather History Date:

Saturday, August 3, 2019

  Actual Average Record
Temperature  
Mean Temperature 86 °F -  
Max Temperature 96 °F 95 °F 111 °F (2012)
Min Temperature 77 °F 71 °F 65 °F (2014)
Cooling Degree Days 21    
Growing Degree Days 36 (Base 50)    
Moisture  
Dew Point 67 °F    
Average Humidity 55    
Maximum Humidity 75    
Minimum Humidity 37    
Precipitation  
Precipitation 0.00 in - - ()
Sea Level Pressure  
Sea Level Pressure 29.89 in    
Wind  
Wind Speed 8 mph (ESE)    
Max Wind Speed 16 mph    
Max Gust Speed 22 mph    
Visibility 10 miles    
Events      
Averages and records for this station are not official NWS values.
T = Trace of Precipitation, MM = Missing Value Source: NWS Daily Summary

Daily Weather History Graph

Daily Weather History Graph

Search for Another Location

Airport or City:

Astronomy

Aug. 03, 2019 Rise Set
Actual Time 6:48 AM CDT 8:37 PM CDT
Civil Twilight 6:21 AM CDT 9:04 PM CDT
Nautical Twilight 5:47 AM CDT 9:38 PM CDT
Astronomical Twilight 5:12 AM CDT 10:13 PM CDT
Moon 9:38 AM CDT (8/3) 10:51 PM CDT (8/3)
Length of Visible Light 14h 43m
Length of Day
13h 48m
Waxing Crescent, 10% of the Moon is Illuminated
Aug 3
Waxing Crescent
Aug 7
First Quarter
Aug 15
Full
Aug 23
Last Quarter
Aug 30
New

Hourly Weather History & Observations

Time (CDT) Temp. Heat Index Dew Point Humidity Pressure Visibility Wind Dir Wind Speed Gust Speed Precip Events Conditions
12:56 AM 81.9 °F 83.9 °F 65.7 °F 58% 29.88 in 10.0 mi SE 4.6 mph - N/A   Mostly Cloudy
1:56 AM 81.1 °F 83.2 °F 65.8 °F 60% 29.86 in 10.0 mi ESE 5.8 mph - N/A   Mostly Cloudy
2:56 AM 81.7 °F 83.6 °F 65.8 °F 58% 29.86 in 10.0 mi SSE 8.1 mph - N/A   Scattered Clouds
3:20 AM 80.6 °F 82.7 °F 66.2 °F 61% 29.86 in 10.0 mi SE 6.9 mph - N/A   Light Drizzle
3:31 AM 80.6 °F 82.7 °F 66.2 °F 61% 29.86 in 10.0 mi SE 6.9 mph - N/A   Scattered Clouds
3:56 AM 79.7 °F - 66.0 °F 63% 29.86 in 10.0 mi SE 8.1 mph - 0.00 in   Mostly Cloudy
4:56 AM 80.4 °F 82.6 °F 66.2 °F 62% 29.86 in 10.0 mi SE 8.1 mph - N/A   Partly Cloudy
5:56 AM 80.4 °F 82.8 °F 67.1 °F 64% 29.86 in 10.0 mi SE 11.5 mph - N/A   Mostly Cloudy
6:56 AM 77.9 °F - 69.3 °F 75% 29.85 in 10.0 mi SE 15.0 mph 21.9 mph N/A   Partly Cloudy
7:56 AM 78.8 °F - 70.2 °F 75% 29.87 in 10.0 mi SE 13.8 mph - N/A   Clear
9:56 AM 85.5 °F 90.1 °F 70.0 °F 60% 29.90 in 10.0 mi SE 8.1 mph - N/A   Clear
10:56 AM 88.0 °F 92.9 °F 69.8 °F 55% 29.91 in 10.0 mi East 6.9 mph - N/A   Clear
11:56 AM 90.0 °F 94.1 °F 68.7 °F 49% 29.91 in 10.0 mi ESE 11.5 mph 17.3 mph N/A   Clear
12:56 PM 90.1 °F 93.5 °F 67.6 °F 47% 29.92 in 10.0 mi NE 5.8 mph - N/A   Scattered Clouds
1:56 PM 91.8 °F 95.1 °F 67.3 °F 44% 29.91 in 10.0 mi East 5.8 mph 16.1 mph N/A   Scattered Clouds
2:06 PM 93.2 °F 97.7 °F 68.0 °F 44% 29.90 in 10.0 mi ENE 16.1 mph 20.7 mph N/A   Scattered Clouds
2:56 PM 93.7 °F 96.2 °F 65.7 °F 39% 29.89 in 10.0 mi East 9.2 mph 18.4 mph N/A   Partly Cloudy
3:56 PM 95.2 °F 98.3 °F 66.2 °F 38% 29.87 in 10.0 mi ENE 9.2 mph - N/A   Partly Cloudy
4:56 PM 95.7 °F 99.2 °F 66.7 °F 38% 29.86 in 10.0 mi East 6.9 mph - N/A   Clear
5:56 PM 94.8 °F 97.1 °F 65.1 °F 37% 29.86 in 10.0 mi Calm Calm - N/A   Partly Cloudy
6:56 PM 92.8 °F 96.1 °F 66.4 °F 42% 29.86 in 10.0 mi ESE 9.2 mph - N/A   Partly Cloudy
7:56 PM 88.7 °F 91.1 °F 66.4 °F 47% 29.87 in 10.0 mi ESE 12.7 mph - N/A   Clear
8:56 PM 86.0 °F 88.2 °F 66.2 °F 51% 29.90 in 10.0 mi ESE 8.1 mph - N/A   Scattered Clouds
9:56 PM 82.9 °F 85.4 °F 66.6 °F 58% 29.92 in 10.0 mi East 9.2 mph - N/A   Clear
10:56 PM 81.1 °F 84.0 °F 68.2 °F 65% 29.94 in 10.0 mi East 10.4 mph - N/A   Clear
11:56 PM 78.1 °F - 68.7 °F 73% 29.97 in 10.0 mi East 6.9 mph - N/A   Clear